Location: Callao
(39.8979°N, 113.7141°W)
Time: 17:18:32
(UTC+00:00)

AO-91 - Pass Details

Date: 11 May 2021
Orbit: 453 x 808 km, 97.7° (Epoch: 19 June)

Event Time Altitude Azimuth Distance (km) Brightness Sun altitude
Rises 07:03:35 0° 12° (NNE) 2,673 ? -31.8°
Reaches altitude 10° 07:05:36 10° 13° (NNE) 1,826 ? -31.8°
Enters shadow 07:07:04 23° 13° (NNE) 1,233 ? -31.9°
